Tracking 17265 objects as of 3-September-2015
HD Live streaming from Space Station

Track Soyuz TMA-18M
and Space Station

COSMOS 2286

Track COSMOS 2286 now!
COSMOS 2286 is classified as:


NORAD ID: 23194
Int'l Code: 1994-048A
Perigee: 3,645.5 km
Apogee: 36,740.3 km
Inclination: 67.4 °
Period: 718.1 minutes
Semi major axis: 26563 km
RCS: 14.1879 m2 (large)
Launch date: August 5, 1994
Source: Commonwealth of Independent States (former USSR) (CIS)
Your satellite tracking list
Your tracking list is empty





NASA's NSSDC Master Catalog

Two Line Element Set (TLE):
1 23194U 94048A   15245.80176733 +.00000594 +00000-0 +00000-0 0  9994
2 23194 067.3993 055.9160 6229295 194.3725 117.0737 02.00523469154423

Source of the keplerian elements: AFSPC

N2YO: 477